Immokalee Regional Airport [I, FL

3:56 AM EDT on March 27, 2017 (GMT -0400)
Immokalee

Weather History for KIMM - August, 2014

Change the Weather History Date:

Thursday, August 14, 2014

  Actual Average (KRSW) Record (KRSW)
Temperature  
Mean Temperature 85 °F -  
Max Temperature 95 °F 90 °F 98 °F (1997)
Min Temperature 75 °F 74 °F 70 °F (1947)
Cooling Degree Days 20    
Growing Degree Days 35 (Base 50)    
Moisture  
Dew Point 81 °F    
Average Humidity 85    
Maximum Humidity 100    
Minimum Humidity 56    
Precipitation  
Precipitation 0.00 in - - ()
Sea Level Pressure  
Sea Level Pressure 30.04 in    
Wind  
Wind Speed 1 mph (South)    
Max Wind Speed 12 mph    
Max Gust Speed 16 mph    
Visibility 8 miles    
Events      
Averages and records for this station are not official NWS values.
T = Trace of Precipitation, MM = Missing Value Source: NWS Daily Summary

Daily Weather History Graph

Daily Weather History Graph

Search for Another Location

Airport or City:

Trip Planner

Search our weather history database for the weather conditions in past years. The results will help you decide how hot, cold, wet, or windy it might be!

Date:

Astronomy

Aug. 14, 2014 Rise Set
Actual Time 6:57 AM EDT 8:02 PM EDT
Civil Twilight 6:33 AM EDT 8:27 PM EDT
Nautical Twilight 6:04 AM EDT 8:55 PM EDT
Astronomical Twilight 5:34 AM EDT 9:25 PM EDT
Moon 10:58 PM EDT (8/14) 11:02 AM EDT (8/14)
Length of Visible Light 13h 54m
Length of Day
13h 05m
Waning Gibbous, 79% of the Moon is Illuminated
Aug 14
Waning Gibbous
Aug 17
Last Quarter
Aug 25
New
Sep 2
First Quarter
Sep 8
Full

Hourly Weather History & Observations

Time (EDT) Temp. Heat Index Dew Point Humidity Pressure Visibility Wind Dir Wind Speed Gust Speed Precip Events Conditions
12:15 AM 75.2 °F - - N/A% 30.05 in 8.0 mi Calm Calm - 0.00 in   Clear
12:35 AM 75.2 °F - - N/A% 30.05 in 8.0 mi Calm Calm - 0.00 in   Clear
12:55 AM 75.2 °F - - N/A% 30.05 in 9.0 mi Calm Calm - 0.00 in   Clear
1:15 AM 75.2 °F - - N/A% 30.05 in 9.0 mi Calm Calm - 0.00 in   Clear
1:35 AM 75.2 °F - - N/A% 30.04 in 8.0 mi Calm Calm - 0.00 in   Clear
2:15 AM 75.2 °F - - N/A% 30.02 in 8.0 mi Calm Calm - 0.00 in   Clear
2:35 AM 75.2 °F - - N/A% 30.02 in 8.0 mi Calm Calm - 0.00 in   Clear
2:55 AM 75.2 °F - - N/A% 30.02 in 7.0 mi Calm Calm - 0.00 in   Clear
3:15 AM 75.2 °F - - N/A% 30.01 in 7.0 mi Calm Calm - 0.00 in   Clear
3:35 AM 75.2 °F - - N/A% 30.01 in 8.0 mi Calm Calm - 0.00 in   Clear
3:55 AM 75.2 °F - - N/A% 30.01 in 8.0 mi Calm Calm - 0.00 in   Clear
4:35 AM 75.2 °F - - N/A% 30.01 in 7.0 mi Calm Calm - 0.00 in   Clear
5:15 AM 75.2 °F - - N/A% 30.01 in 8.0 mi Calm Calm - 0.00 in   Partly Cloudy
5:35 AM 75.2 °F - - N/A% 30.01 in 7.0 mi Calm Calm - 0.00 in   Clear
5:55 AM 75.2 °F - - N/A% 30.01 in 8.0 mi Calm Calm - 0.00 in   Clear
6:15 AM 75.2 °F - - N/A% 30.01 in 8.0 mi Calm Calm - 0.00 in   Scattered Clouds
6:35 AM 75.2 °F - - N/A% 30.02 in 8.0 mi Calm Calm - 0.00 in   Partly Cloudy
6:55 AM 75.2 °F - - N/A% 30.02 in 7.0 mi Calm Calm - 0.00 in   Clear
7:15 AM 75.2 °F - - N/A% 30.03 in 7.0 mi Calm Calm - 0.00 in   Clear
7:35 AM 75.2 °F - - N/A% 30.04 in 5.0 mi Calm Calm - 0.00 in   Clear
8:15 AM 80.6 °F - - N/A% 30.05 in 7.0 mi Calm Calm - 0.00 in   Clear
8:35 AM 84.2 °F 103.5 °F 84.2 °F 100% 30.05 in 7.0 mi Calm Calm - 0.00 in   Clear
8:55 AM 86.0 °F 111.5 °F 86.0 °F 100% 30.06 in 8.0 mi Calm Calm - 0.00 in   Clear
9:15 AM 87.8 °F 115.4 °F 86.0 °F 94% 30.06 in 7.0 mi Calm Calm - 0.00 in   Partly Cloudy
9:35 AM 87.8 °F 111.7 °F 84.2 °F 89% 30.07 in 7.0 mi SSE 3.5 mph - 0.00 in   Clear
9:55 AM 89.6 °F 115.0 °F 84.2 °F 84% 30.07 in 7.0 mi Calm Calm - 0.00 in   Clear
10:15 AM 91.4 °F 117.8 °F 84.2 °F 79% 30.07 in 7.0 mi Calm Calm - 0.00 in   Clear
10:35 AM 91.4 °F 114.3 °F 82.4 °F 75% 30.07 in 7.0 mi West 4.6 mph - 0.00 in   Clear
10:55 AM 91.4 °F 111.0 °F 80.6 °F 71% 30.06 in 9.0 mi Calm Calm - 0.00 in   Partly Cloudy
11:15 AM 93.2 °F 113.6 °F 80.6 °F 67% 30.06 in 7.0 mi WSW 8.1 mph - 0.00 in   Partly Cloudy
11:35 AM 93.2 °F 110.2 °F 78.8 °F 63% 30.07 in 8.0 mi West 3.5 mph - 0.00 in   Partly Cloudy
11:55 AM 95.0 °F 109.7 °F 77.0 °F 56% 30.07 in 7.0 mi Calm Calm - 0.00 in   Scattered Clouds
12:15 PM 91.4 °F 111.0 °F 80.6 °F 71% 30.06 in 5.0 mi WNW 5.8 mph - 0.00 in   Mostly Cloudy
12:35 PM 89.6 °F 111.1 °F 82.4 °F 79% 30.06 in 8.0 mi SSW 4.6 mph - 0.00 in   Mostly Cloudy
12:55 PM 89.6 °F 111.1 °F 82.4 °F 79% 30.05 in 5.0 mi South 8.1 mph - 0.00 in   Partly Cloudy
1:15 PM 91.4 °F 114.3 °F 82.4 °F 75% 30.05 in 7.0 mi SW 6.9 mph - 0.00 in   Clear
1:35 PM 93.2 °F 110.2 °F 78.8 °F 63% 30.04 in 7.0 mi SW 4.6 mph - 0.00 in   Clear
1:55 PM 91.4 °F 107.2 °F 78.8 °F 66% 30.03 in 8.0 mi West 6.9 mph - 0.00 in   Partly Cloudy
2:15 PM 91.4 °F 107.2 °F 78.8 °F 66% 30.03 in 7.0 mi Calm Calm - 0.00 in   Scattered Clouds
2:35 PM 87.8 °F 108.2 °F 82.4 °F 84% 30.04 in 5.0 mi SE 11.5 mph - 0.00 in   Mostly Cloudy
3:15 PM 80.6 °F 89.3 °F 80.6 °F 100% 30.02 in 8.0 mi SE 9.2 mph - 0.00 in   Partly Cloudy
3:35 PM 80.6 °F 89.3 °F 80.6 °F 100% 30.02 in 7.0 mi ESE 6.9 mph - 0.00 in   Clear
3:55 PM 80.6 °F 89.3 °F 80.6 °F 100% 30.01 in 7.0 mi Calm Calm - 0.00 in   Partly Cloudy
4:15 PM 84.2 °F 100.6 °F 82.4 °F 94% 30.03 in 6.0 mi NNE 9.2 mph - 0.00 in   Scattered Clouds
4:35 PM 80.6 °F 88.1 °F 78.8 °F 94% 30.03 in 9.0 mi North 6.9 mph 16.1 mph 0.00 in   Mostly Cloudy
4:55 PM 82.4 °F 90.9 °F 77.0 °F 84% 30.02 in 7.0 mi Calm Calm - 0.00 in   Partly Cloudy
5:15 PM 82.4 °F 90.9 °F 77.0 °F 84% 30.01 in 10.0 mi SSE 4.6 mph - 0.00 in   Clear
5:35 PM 78.8 °F - 78.8 °F 100% 30.00 in 2.5 mi Calm Calm - 0.00 in   Scattered Clouds
5:55 PM 78.8 °F - - N/A% 30.03 in 8.0 mi East 6.9 mph - 0.00 in   Partly Cloudy
6:15 PM 78.8 °F - 78.8 °F 100% 30.03 in 9.0 mi East 4.6 mph - 0.00 in   Clear
6:35 PM 78.8 °F - 78.8 °F 100% 30.02 in 9.0 mi East 5.8 mph - 0.00 in   Clear
6:55 PM 78.8 °F - 78.8 °F 100% 30.01 in 8.0 mi ESE 4.6 mph - 0.00 in   Partly Cloudy
7:15 PM 78.8 °F - 78.8 °F 100% 30.01 in 9.0 mi Calm Calm - 0.00 in   Partly Cloudy
7:35 PM 78.8 °F - 78.8 °F 100% 30.03 in 9.0 mi Calm Calm - 0.00 in   Clear
7:55 PM 78.8 °F - 78.8 °F 100% 30.03 in 9.0 mi Calm Calm - 0.00 in   Partly Cloudy
8:15 PM 78.8 °F - - N/A% 30.03 in 7.0 mi Calm Calm - 0.00 in   Clear
8:35 PM 78.8 °F - - N/A% 30.04 in 10.0 mi Calm Calm - 0.00 in   Clear
8:55 PM 77.0 °F - - N/A% 30.04 in 8.0 mi Calm Calm - 0.00 in   Scattered Clouds
9:15 PM 77.0 °F - - N/A% 30.04 in 6.0 mi Calm Calm - 0.00 in   Partly Cloudy
9:35 PM 77.0 °F - - N/A% 30.05 in 7.0 mi SSE 4.6 mph - 0.00 in   Clear
9:55 PM 77.0 °F - - N/A% 30.04 in 5.0 mi Calm Calm - 0.00 in   Clear
10:15 PM 75.2 °F - - N/A% 30.06 in 10.0 mi Calm Calm - 0.00 in   Scattered Clouds
11:15 PM 77.0 °F - - N/A% 30.05 in 9.0 mi Calm Calm - 0.00 in   Clear
11:35 PM 78.8 °F - - N/A% 30.05 in 8.0 mi Calm Calm - 0.00 in   Clear
11:55 PM 77.0 °F - - N/A% 30.05 in 8.0 mi Calm Calm - 0.00 in   Clear